Temp
62 62 61 61 62 62 62 62 63 63 63 63 62 62 62 62 61 62 70 82 80 79 81 78 79 79 79 76 81 78 66 60 62 65 67 73 70 77 79 73 76 77 72 75 77
61 61 61 61 61 62 62 62 62 62 62 62 62 62 62 62 58 63 79 81 80 80 82 78 76 78 72 74 77 71 63 67 72 72 70 73 73 74 72 72 71 71 75 76 76
61 61 61 61 61 61 61 62 62 62 61 61 61 62 62 61 64 74 82 81 81 82 85 84 83 80 73 73 76 72 69 74 76 77 78 74 74 76 71 66 70 67 70 73 73
60 60 60 60 61 61 61 61 61 61 61 61 61 62 62 58 62 79 81 80 80 81 83 82 80 74 70 71 77 70 77 77 77 79 77 73 75 72 72 71 77 74 74 73 72
60 59 59 60 60 60 60 60 60 60 60 61 61 62 56 59 68 82 82 79 78 79 80 79 76 73 71 73 76 73 74 78 79 77 77 78 73 72 73 76 78 76 75 73 72
59 59 59 59 59 60 60 59 59 59 60 61 62 62 54 59 81 81 80 76 77 79 78 81 79 79 75 75 73 77 77 76 75 74 74 72 72 73 73 76 74 74 73 73 74
59 59 59 59 59 59 59 59 58 59 60 62 62 62 57 70 82 78 74 74 77 80 77 81 81 77 76 72 78 79 71 75 73 73 72 77 68 69 74 75 72 73 73 74 75
59 59 59 59 59 59 58 57 58 60 62 62 62 57 60 79 77 78 77 76 78 77 81 82 81 76 75 77 76 70 69 63 72 74 74 72 61 69 75 73 70 72 73 73 74
58 58 58 58 58 57 56 56 59 62 62 63 56 55 62 81 77 79 80 78 77 76 80 92 80 72 73 68 63 65 60 61 66 74 73 68 61 70 74 72 70 71 72 73 73
58 57 57 57 57 56 55 56 58 59 61 64 67 58 70 75 78 81 79 83 77 76 77 75 69 64 62 61 54 60 62 60 63 71 71 65 62 69 72 71 70 71 72 73 73
57 57 57 57 56 55 53 51 60 58 57 63 64 67 75 79 82 79 81 79 77 71 64 68 63 59 64 68 70 68 65 68 68 72 66 63 63 67 71 71 70 71 71 72 73
57 57 57 56 55 55 49 57 59 58 55 66 69 71 77 76 73 80 83 73 70 64 63 62 60 67 72 71 70 69 64 64 67 71 68 62 63 67 70 70 71 71 71 72 74
57 56 56 55 54 52 49 55 62 58 52 63 67 68 70 74 71 75 79 73 67 64 62 58 64 73 72 67 67 62 64 63 68 68 66 65 59 61 68 71 72 73 74 74 74
56 56 55 54 53 47 53 57 58 58 48 57 63 72 71 72 66 82 82 77 69 65 65 63 72 72 68 68 67 58 69 71 67 64 55 64 51 57 65 66 70 72 73 74 75
56 55 55 54 46 46 59 52 55 58 40 66 67 78 70 68 69 73 81 74 67 67 64 62 66 68 65 69 72 68 71 69 66 60 57 56 54 58 64 61 67 72 74 75 76
55 55 54 50 46 49 54 51 56 51 41 61 69 66 64 65 70 72 76 77 75 69 63 68 72 72 72 73 76 74 68 61 56 54 47 57 58 54 56 66 71 73 75 76 77
54 53 52 54 47 50 52 57 47 41 61 60 59 62 62 63 66 67 68 65 61 54 52 61 67 69 74 67 68 66 58 48 46 45 46 53 53 64 66 72 75 74 75 77 79
53 51 49 52 48 51 52 51 38 54 55 61 63 62 58 62 63 67 63 60 62 60 53 53 54 67 72 68 64 61 60 49 44 43 50 54 51 63 77 76 75 76 78 78 78
52 45 43 48 52 48 51 40 45 51 61 60 61 54 54 62 63 62 60 61 66 64 57 51 54 67 72 73 73 60 55 61 50 43 47 50 57 69 72 71 71 74 74 75 77
46 43 43 53 54 50 46 43 49 59 62 61 51 55 50 54 58 57 55 65 66 69 65 60 50 64 72 70 69 68 66 56 48 43 40 49 51 57 63 68 68 69 72 75 77
40 42 55 52 51 48 41 44 55 62 63 59 55 53 53 54 57 54 58 66 70 70 66 60 55 58 64 65 65 60 56 53 53 49 45 44 50 61 67 69 70 69 75 75 76
41 41 55 54 46 40 41 48 56 59 62 61 58 58 57 59 55 56 58 65 72 70 62 63 59 55 59 64 69 70 62 59 57 47 46 48 53 68 69 69 68 71 74 72 74
37 38 49 52 39 41 46 53 57 57 57 57 57 60 61 57 52 57 61 71 73 68 63 62 52 53 53 57 59 60 59 55 53 50 46 50 54 67 65 67 66 67 69 69 70
41 33 42 46 42 40 42 47 51 63 61 62 60 60 56 54 57 56 59 70 73 72 71 71 53 58 56 60 61 58 62 59 58 49 50 52 59 65 67 66 66 66 68 68 70
43 35 39 36 41 40 39 46 50 51 59 59 54 57 56 50 54 55 62 66 70 67 65 60 57 58 68 64 64 64 63 60 58 58 58 63 59 66 68 67 68 70 68 68 67
41 39 40 37 40 40 40 42 48 52 52 54 53 60 58 54 57 56 60 59 60 61 60 57 55 54 63 67 65 65 65 64 63 61 62 61 61 68 69 67 67 68 68 68 68
40 42 42 41 38 38 40 43 48 51 55 59 58 54 54 58 61 63 63 65 59 59 53 54 53 49 55 58 58 53 67 65 64 63 65 59 67 67 65 68 69 67 69 71 71
MSLP
1017.21 1016.79 1016.28 1015.70 1015.23 1014.68 1014.25 1013.91 1013.50 1012.93 1012.47 1011.88 1011.43 1010.98 1010.41 1009.97 1009.07 1008.38 1007.11 1004.70 1004.45 1004.69 1005.30 1006.42 1006.76 1006.84 1007.26 1007.17 1007.02 1007.24 1008.13 1008.55 1008.62 1008.78 1008.94 1009.22 1009.86 1010.25 1010.41 1011.13 1011.37 1011.60 1011.92 1012.33 1013.47
1017.29 1016.82 1016.39 1015.84 1015.17 1014.63 1014.13 1013.54 1013.18 1012.82 1012.28 1011.83 1011.22 1010.84 1010.27 1009.88 1009.18 1007.15 1003.50 1003.48 1003.68 1004.11 1005.11 1005.78 1006.41 1006.76 1007.06 1006.65 1006.49 1006.88 1007.33 1007.04 1006.91 1007.35 1007.72 1008.64 1009.42 1009.96 1010.61 1011.05 1011.36 1011.72 1012.12 1012.78 1013.65
1017.35 1016.85 1016.29 1015.78 1015.22 1014.54 1013.89 1013.39 1012.74 1012.44 1011.97 1011.58 1011.15 1010.68 1010.26 1009.80 1008.72 1004.59 1002.66 1003.17 1003.73 1003.86 1004.26 1004.92 1005.31 1006.04 1006.52 1006.19 1006.00 1006.11 1005.94 1005.86 1006.19 1006.40 1006.94 1008.22 1009.29 1009.73 1010.37 1011.01 1010.80 1011.26 1012.03 1012.86 1013.77
1017.34 1016.82 1016.21 1015.58 1015.04 1014.47 1013.81 1013.11 1012.54 1011.97 1011.67 1011.22 1010.96 1010.58 1010.24 1009.85 1007.31 1003.35 1002.84 1002.96 1003.40 1003.89 1004.34 1004.76 1005.15 1005.54 1005.72 1005.64 1005.29 1005.46 1004.77 1005.39 1005.66 1006.18 1006.92 1007.81 1008.91 1009.65 1010.02 1010.10 1010.24 1011.19 1011.93 1012.78 1013.47
1017.20 1016.72 1016.19 1015.48 1014.73 1014.15 1013.54 1012.89 1012.24 1011.65 1011.26 1010.90 1010.68 1010.52 1010.23 1009.08 1005.45 1002.90 1002.88 1002.83 1003.35 1004.00 1004.09 1004.32 1004.64 1004.98 1005.01 1004.83 1004.74 1004.78 1004.41 1004.88 1004.97 1005.60 1006.49 1007.57 1008.56 1009.28 1009.73 1009.87 1010.30 1011.30 1012.20 1012.92 1013.51
1017.15 1016.44 1015.89 1015.27 1014.52 1013.74 1013.02 1012.42 1011.81 1011.25 1010.70 1010.45 1010.27 1010.38 1010.15 1007.57 1003.06 1002.91 1003.04 1003.28 1003.26 1003.64 1003.94 1003.79 1003.84 1003.74 1004.06 1004.20 1004.34 1004.10 1004.29 1004.80 1005.46 1006.12 1006.95 1007.73 1008.83 1009.19 1010.03 1010.20 1010.89 1011.54 1012.21 1012.80 1013.21
1016.94 1016.38 1015.67 1014.94 1014.25 1013.45 1012.56 1011.84 1011.29 1010.59 1010.04 1009.76 1009.84 1009.90 1009.24 1004.76 1002.51 1002.71 1002.98 1003.04 1003.07 1003.02 1003.63 1003.41 1003.29 1003.44 1003.67 1003.85 1003.92 1004.23 1005.19 1005.20 1006.13 1006.45 1007.32 1007.87 1009.18 1009.34 1009.66 1010.19 1011.08 1011.77 1012.30 1012.80 1013.11
1016.62 1016.02 1015.44 1014.76 1013.91 1012.88 1012.05 1011.28 1010.63 1009.97 1009.34 1009.27 1009.51 1009.41 1007.10 1002.97 1002.69 1002.64 1002.64 1002.69 1002.79 1002.91 1002.95 1003.04 1003.25 1003.54 1003.51 1003.52 1003.96 1004.65 1005.02 1006.12 1006.57 1006.67 1007.37 1007.88 1008.75 1009.28 1009.73 1010.26 1011.07 1011.82 1012.30 1012.62 1012.85
1016.68 1015.82 1015.00 1014.22 1013.59 1012.78 1011.52 1010.50 1009.97 1009.45 1009.39 1009.34 1009.27 1008.75 1005.37 1002.61 1002.52 1001.83 1001.96 1002.37 1002.65 1002.83 1002.92 1002.82 1003.31 1003.79 1003.72 1004.28 1005.11 1005.42 1005.77 1006.34 1006.80 1006.72 1007.31 1008.23 1009.02 1009.27 1009.85 1010.33 1010.93 1011.41 1011.94 1012.29 1012.71
1016.45 1015.72 1014.87 1013.99 1013.16 1012.21 1011.05 1009.73 1009.51 1009.54 1009.47 1009.26 1008.66 1008.20 1004.33 1002.62 1002.01 1001.72 1001.62 1001.95 1002.30 1002.85 1003.12 1003.20 1003.72 1004.23 1004.66 1004.97 1005.53 1005.58 1005.97 1006.34 1006.51 1006.65 1007.19 1008.19 1008.82 1009.35 1009.83 1010.28 1010.58 1010.99 1011.43 1011.75 1012.03
1016.20 1015.45 1014.65 1013.67 1012.89 1012.02 1010.95 1009.98 1009.74 1009.54 1008.88 1007.55 1006.67 1005.44 1003.45 1002.28 1001.81 1001.33 1001.44 1001.99 1002.16 1002.92 1003.40 1003.48 1004.22 1004.31 1004.58 1004.42 1004.31 1004.95 1005.55 1005.72 1006.24 1006.77 1007.58 1008.11 1008.86 1009.23 1009.70 1010.18 1010.46 1010.64 1010.84 1011.02 1011.12
1016.19 1015.42 1014.55 1013.53 1012.65 1011.85 1011.49 1011.03 1010.36 1010.27 1008.60 1006.07 1004.65 1003.86 1002.55 1002.29 1002.14 1001.33 1001.53 1002.21 1002.60 1003.22 1003.49 1003.98 1003.67 1003.98 1004.03 1004.17 1004.40 1004.88 1005.51 1005.90 1006.49 1006.80 1008.02 1008.80 1009.24 1009.46 1009.72 1009.15 1009.63 1010.07 1010.27 1010.49 1010.74
1016.06 1015.22 1014.42 1013.26 1012.09 1011.69 1011.96 1010.64 1010.05 1009.70 1009.22 1004.53 1003.25 1002.34 1001.55 1001.93 1001.50 1000.92 1001.41 1001.72 1002.48 1003.22 1003.59 1003.77 1003.42 1003.64 1003.88 1004.22 1004.53 1004.79 1005.08 1005.80 1006.34 1007.30 1007.91 1008.84 1009.65 1009.73 1009.62 1009.72 1009.74 1009.68 1009.82 1010.10 1010.28
1016.08 1015.18 1014.56 1013.38 1012.08 1012.50 1011.19 1010.15 1010.08 1009.92 1008.83 1004.41 1002.30 1000.75 1000.76 1000.75 1000.72 1000.01 1000.27 1000.94 1002.01 1002.69 1003.46 1003.47 1002.76 1002.88 1003.41 1003.83 1003.91 1004.53 1004.34 1005.24 1006.47 1007.33 1008.18 1008.28 1009.26 1009.23 1008.93 1008.97 1008.83 1008.66 1008.89 1009.04 1009.42
1015.91 1015.02 1014.85 1014.57 1014.05 1012.89 1010.36 1010.26 1010.01 1009.67 1007.76 1002.92 1000.88 999.63 999.96 1000.39 999.77 999.48 999.81 1000.33 1001.38 1002.16 1002.90 1002.63 1002.24 1002.40 1002.57 1002.64 1003.11 1003.44 1003.86 1005.24 1006.43 1007.71 1008.21 1008.93 1009.26 1007.72 1008.16 1008.49 1007.42 1007.12 1007.59 1007.94 1008.27
1015.48 1014.51 1014.66 1014.18 1013.90 1011.20 1010.24 1010.16 1010.12 1009.59 1006.39 1002.55 1000.49 999.96 1000.28 1000.10 999.76 999.35 999.45 999.79 1000.64 1001.88 1002.39 1002.34 1001.56 1001.61 1001.51 1001.95 1002.20 1002.96 1004.60 1006.29 1007.60 1008.29 1009.12 1008.23 1008.60 1007.46 1007.41 1005.59 1004.66 1005.90 1006.33 1006.63 1007.28
1014.67 1013.60 1013.72 1013.80 1011.86 1010.55 1010.28 1009.93 1010.36 1008.08 1004.57 1002.42 1001.13 1000.44 1000.19 1000.07 999.95 999.56 999.92 1000.37 1001.03 1002.03 1002.34 1002.56 1001.71 1001.11 1000.70 1001.60 1002.11 1002.69 1004.70 1006.76 1008.54 1009.22 1009.05 1007.65 1008.16 1005.70 1004.23 1003.52 1003.03 1003.82 1004.32 1005.06 1005.82
1013.83 1012.51 1011.57 1011.03 1010.66 1010.96 1011.00 1010.67 1009.34 1006.20 1004.02 1002.25 1001.45 1000.70 1000.39 1000.12 999.82 999.69 1000.07 1000.66 1001.10 1001.58 1002.83 1002.80 1001.91 1000.77 1000.60 1000.92 1001.72 1002.96 1004.09 1006.25 1007.70 1008.85 1008.69 1007.83 1006.86 1004.01 1002.24 1002.25 1002.74 1003.11 1003.50 1004.39 1005.04
1013.07 1011.96 1011.48 1010.04 1010.31 1010.72 1010.68 1010.06 1007.31 1005.72 1003.78 1002.37 1001.67 1001.23 1000.86 1000.37 1000.07 1000.14 1000.44 1000.47 1000.63 1001.11 1001.92 1002.47 1001.71 1000.50 1000.05 1000.25 1000.90 1002.84 1003.96 1004.76 1006.69 1008.43 1008.51 1007.49 1005.54 1003.31 1002.01 1002.07 1002.16 1002.14 1002.96 1003.24 1003.77
1013.77 1012.68 1010.71 1009.46 1009.76 1010.08 1010.23 1008.28 1006.57 1004.57 1003.28 1002.42 1002.16 1001.68 1001.37 1001.29 1001.27 1001.03 1000.65 999.88 999.83 999.97 1000.53 1001.31 1001.68 1000.61 1000.16 1000.11 1000.51 1001.13 1002.76 1004.84 1006.48 1007.86 1008.26 1007.08 1005.50 1003.40 1002.42 1001.61 1001.55 1002.04 1002.02 1002.25 1002.81
1014.33 1012.77 1010.08 1009.52 1009.65 1009.93 1009.42 1007.75 1005.62 1003.84 1003.05 1002.67 1002.14 1002.09 1002.00 1001.84 1001.52 1001.41 1000.72 999.64 999.23 999.41 1000.07 1001.03 1001.49 1001.08 1000.34 999.78 1000.30 1001.62 1002.54 1004.24 1005.33 1006.52 1007.02 1006.56 1004.76 1002.24 1001.49 1001.02 1000.92 1000.85 1000.79 1001.17 1001.97
1015.03 1013.61 1010.26 1010.05 1010.16 1009.82 1008.72 1006.82 1004.98 1003.42 1002.62 1002.35 1002.08 1002.03 1002.01 1001.98 1001.55 1001.18 1000.38 999.31 998.56 998.97 1000.10 1000.37 1000.69 1001.11 1000.29 999.63 999.50 1000.14 1001.35 1002.76 1004.52 1006.09 1006.25 1005.25 1002.88 1000.76 1000.22 1000.53 1000.52 1000.21 1000.61 1000.99 1001.52
1015.42 1014.08 1010.48 1010.23 1010.50 1009.68 1008.13 1006.63 1004.96 1003.72 1002.76 1002.18 1002.06 1001.79 1001.65 1001.84 1001.66 1000.57 999.69 998.15 998.21 998.94 999.18 999.43 1000.00 1000.61 1000.44 1000.07 999.57 999.67 1000.57 1001.70 1002.83 1003.78 1004.53 1004.26 1001.97 1000.33 1000.31 1000.36 1000.27 1000.52 1000.27 1000.72 1001.39
1016.12 1014.70 1011.89 1010.66 1010.52 1010.07 1009.10 1007.07 1005.46 1003.80 1002.96 1002.33 1001.86 1001.79 1001.93 1001.85 1001.28 1000.26 999.25 998.04 997.78 997.83 997.70 997.92 998.78 998.90 998.67 998.71 999.07 999.55 999.95 1000.78 1001.53 1002.99 1003.05 1002.19 1001.23 1000.52 1000.15 1000.03 1000.00 999.99 1000.06 1000.46 1000.97
1015.91 1014.83 1013.74 1012.29 1011.20 1010.70 1009.85 1007.88 1006.18 1004.73 1003.20 1002.34 1001.89 1001.79 1001.78 1001.70 1000.81 999.98 999.09 998.34 997.79 997.71 997.72 997.44 997.79 997.94 997.34 997.92 998.33 998.29 998.67 999.43 1000.23 1000.28 1000.70 1000.49 1000.52 999.56 998.92 998.90 999.01 998.93 999.89 1000.62 1001.17
1015.88 1015.35 1014.28 1013.17 1011.85 1010.87 1009.51 1008.21 1006.76 1005.42 1004.35 1002.92 1002.26 1001.50 1001.35 1000.99 999.99 999.44 998.81 998.37 997.46 997.75 998.34 998.55 998.37 997.78 997.28 997.33 997.52 997.64 997.58 997.88 998.44 999.05 999.50 999.39 998.83 997.59 997.24 998.06 998.54 998.58 999.35 1000.00 1000.37
1015.97 1015.59 1015.10 1013.09 1012.12 1011.17 1009.64 1008.62 1007.31 1006.71 1004.31 1003.03 1002.42 1002.15 1001.30 1000.36 1000.04 998.95 998.40 998.26 997.74 998.06 999.40 999.69 999.00 999.08 997.92 997.34 997.46 997.06 996.39 996.95 997.38 997.74 997.92 998.39 997.42 996.80 997.41 997.65 997.69 998.22 998.74 998.93 999.12
Wind_Speed
22 22 22 22 21 21 20 19 18 18 18 19 19 18 19 18 17 1 8 11 10 15 13 10 3 4 4 3 6 3 3 3 7 9 6 7 4 5 5 10 4 5 6 10 16
22 23 23 23 23 22 21 20 19 18 18 18 19 18 18 17 4 8 14 12 9 19 9 10 7 6 2 4 3 4 3 7 8 7 11 12 8 10 5 10 1 7 13 18 17
23 23 23 23 23 23 23 21 21 19 19 18 18 17 15 10 5 9 5 11 12 12 8 8 6 9 5 4 4 6 7 6 5 7 16 13 9 6 10 6 6 13 19 20 17
23 23 24 24 24 23 23 23 22 21 18 18 16 15 14 3 8 1 1 6 16 6 6 6 5 7 5 6 5 2 8 8 7 8 13 16 9 6 12 6 7 14 20 18 18
24 24 24 24 25 24 23 22 22 23 20 17 14 11 5 1 14 5 7 3 11 11 10 8 7 7 6 5 4 6 2 8 9 12 11 14 9 5 8 5 14 18 18 17 15
23 24 24 24 25 25 24 23 23 23 22 16 10 4 2 6 5 3 6 5 7 7 8 8 9 7 5 4 4 3 4 9 7 9 5 10 6 9 5 13 15 18 17 16 16
24 24 24 25 26 26 26 25 26 26 21 11 4 3 1 19 4 5 1 5 6 6 7 4 4 4 3 1 3 5 7 10 3 4 5 12 2 6 11 16 16 16 14 14 14
25 26 25 25 26 27 27 27 27 24 13 5 8 2 9 6 2 7 5 3 4 4 4 5 3 3 4 1 5 3 6 6 4 6 8 6 6 2 15 17 17 15 14 14 14
24 26 27 26 26 26 28 29 25 7 5 10 4 3 11 7 4 3 5 4 7 4 5 3 6 3 1 6 5 4 7 4 3 6 7 3 3 8 13 14 15 16 15 14 13
24 25 27 27 28 27 29 25 6 2 3 4 3 1 5 3 3 3 2 6 2 6 4 3 4 3 3 5 7 7 7 3 7 10 9 5 3 12 13 13 16 15 14 15 15
25 25 27 28 28 26 17 5 5 2 1 7 6 6 10 7 5 3 4 4 4 4 7 5 5 7 10 9 8 7 8 17 1 3 4 5 5 15 15 12 14 14 14 16 16
25 25 26 30 29 27 2 4 4 2 12 12 19 16 15 3 6 11 7 6 4 6 2 3 9 9 8 6 9 9 7 10 2 4 5 2 3 10 16 18 17 15 15 14 14
25 25 26 30 32 3 2 5 4 3 3 11 7 7 7 14 14 18 9 5 5 6 4 6 4 10 8 5 8 6 10 7 14 6 4 7 3 8 11 9 11 13 11 12 15
25 25 26 29 4 5 5 2 6 2 4 10 5 7 4 8 6 14 11 8 5 12 7 7 6 11 9 11 8 7 8 8 9 10 7 6 6 8 12 17 14 17 15 16 15
25 25 25 13 7 5 2 7 7 2 6 5 4 1 3 8 4 6 7 5 9 6 7 8 5 8 5 8 10 9 8 11 8 8 6 1 3 7 15 12 22 21 19 19 18
24 28 22 1 3 11 11 7 2 6 10 7 3 0 4 2 5 3 6 4 7 6 3 10 4 8 12 5 10 10 8 7 5 5 2 9 9 6 8 25 25 18 20 20 17
27 29 18 5 7 3 5 4 3 6 4 4 1 3 3 5 5 2 8 7 7 7 6 2 7 3 4 5 1 7 8 2 3 2 7 3 4 14 11 16 24 23 24 21 19
30 31 5 7 3 4 3 5 6 6 9 5 4 4 2 4 6 6 5 5 2 6 5 7 6 8 4 8 9 6 11 8 7 5 5 4 9 13 21 12 9 8 18 15 18
28 4 4 4 9 3 6 4 9 8 5 2 5 2 3 4 5 3 4 9 11 10 11 8 8 4 4 6 10 4 4 7 8 2 3 5 9 9 6 7 8 14 14 18 20
8 6 5 1 8 4 5 7 7 6 3 3 3 3 1 3 6 6 3 5 6 12 6 9 1 8 6 2 3 10 10 4 3 6 5 5 5 7 6 11 9 8 17 18 19
3 5 3 3 2 5 5 9 8 8 4 5 4 1 1 1 5 4 6 6 5 4 9 7 6 7 6 13 14 3 3 5 7 5 8 4 8 10 10 11 12 14 19 18 18
3 4 2 2 2 1 4 7 5 5 3 4 1 5 7 6 6 7 9 10 6 6 6 10 11 11 13 4 6 11 11 10 8 6 2 5 9 5 12 6 8 12 14 8 12
4 5 5 3 3 3 5 5 3 3 4 2 4 7 5 6 4 8 9 10 15 8 8 7 6 10 7 6 2 5 6 6 5 5 9 7 8 2 5 8 8 11 10 10 11
4 5 5 3 0 2 5 5 5 5 6 6 6 4 3 5 7 7 5 4 5 5 16 14 6 13 18 16 6 6 7 7 8 6 7 8 7 7 9 10 8 9 9 10 12
2 4 2 4 2 3 2 4 4 5 3 3 5 8 10 8 7 9 11 15 5 2 7 5 14 11 22 11 8 9 8 10 9 7 9 10 11 12 13 14 14 13 7 8 9
3 3 4 4 4 4 2 3 4 4 3 6 6 9 9 11 12 9 9 7 5 4 6 4 8 7 20 16 12 10 8 10 9 3 7 3 9 10 4 5 6 11 10 10 12
3 3 2 4 4 2 4 1 7 12 9 13 8 7 11 9 7 9 7 6 7 7 3 3 2 4 13 8 7 7 20 11 7 6 11 9 15 7 6 9 10 10 13 16 16
Wind_Direction
353 351 348 344 343 341 340 337 334 329 327 323 323 323 325 325 316 221 244 211 189 155 108 129 133 172 148 233 185 173 103 162 191 155 180 158 116 155 104 141 220 163 148 141 147
351 348 345 342 339 337 336 332 330 327 325 322 321 324 325 332 296 252 239 199 188 151 136 150 171 154 198 234 202 131 140 215 182 166 162 157 155 153 128 164 104 91 112 133 147
348 346 343 340 338 334 331 328 325 325 322 320 320 321 324 331 320 250 339 195 182 166 135 165 138 150 204 183 215 192 215 162 187 166 153 151 161 157 143 226 201 160 150 151 154
346 343 341 338 336 332 328 324 321 319 319 317 318 319 318 303 298 83 40 184 182 158 128 145 155 144 185 201 203 201 252 151 165 153 148 160 134 157 167 213 168 162 154 155 162
343 340 337 335 333 330 324 320 316 315 314 314 313 319 324 243 247 289 325 98 142 152 175 160 150 154 184 197 188 216 203 160 169 164 153 130 164 157 180 131 132 143 151 165 170
341 338 335 333 331 327 322 319 314 314 311 307 300 301 263 251 233 70 58 134 146 128 173 155 183 194 175 205 145 272 139 137 108 101 100 121 134 116 203 138 140 152 164 173 177
339 338 335 331 330 326 321 316 316 314 307 292 219 190 215 240 174 330 249 197 181 149 151 218 161 121 137 208 237 144 102 66 74 112 101 109 139 211 151 149 154 165 172 180 190
336 335 333 331 329 324 319 316 316 312 304 153 155 157 240 255 305 297 171 227 169 153 138 204 188 183 193 190 38 88 59 114 209 146 170 114 245 154 157 155 166 174 182 189 196
334 333 331 330 328 324 318 315 312 311 114 142 121 150 268 314 274 295 165 182 143 152 193 126 131 191 64 106 46 339 149 132 173 199 146 157 212 171 169 164 171 179 187 195 199
336 334 331 329 328 325 321 310 278 20 183 207 253 13 266 262 307 256 187 155 135 113 107 152 75 111 43 96 186 180 166 122 198 194 163 163 223 161 178 174 181 188 191 195 201
333 332 332 328 328 324 334 355 8 342 202 220 200 253 285 268 281 270 110 103 118 102 159 187 136 181 188 184 179 150 169 185 169 25 38 180 158 178 185 191 197 196 197 200 205
332 332 333 328 326 321 324 21 100 200 302 230 248 250 244 43 306 276 126 140 132 198 171 103 206 195 175 173 165 164 152 206 328 140 136 108 314 197 198 202 199 202 208 204 210
330 331 335 331 322 347 280 232 358 13 248 289 219 232 221 178 219 254 155 150 151 174 203 166 232 145 141 173 132 165 170 162 219 144 63 119 316 195 215 215 215 225 221 216 210
328 329 337 337 21 324 279 24 334 256 6 277 269 267 145 143 230 217 180 148 167 185 158 216 218 164 155 174 146 157 206 159 140 143 200 167 243 224 205 212 213 219 209 214 212
326 322 331 336 283 298 255 329 316 107 327 249 272 161 154 161 193 218 173 108 175 162 130 237 191 163 165 185 163 209 149 155 159 169 114 215 78 263 175 219 225 217 207 210 207
325 314 327 348 266 244 314 325 38 52 251 302 245 342 101 240 290 72 139 102 158 171 141 220 226 163 185 183 174 141 100 61 62 96 97 218 181 257 189 213 228 212 213 206 201
321 311 308 254 230 133 295 31 52 182 305 263 313 15 205 217 219 210 151 157 161 157 209 280 249 213 147 132 31 84 76 4 28 58 209 186 147 232 218 222 221 203 205 202 198
319 308 256 203 227 306 41 63 208 228 241 286 284 325 280 14 221 157 109 189 242 117 142 172 237 185 178 165 165 178 149 155 185 180 226 94 208 245 232 230 247 211 213 197 198
320 313 267 254 185 141 98 190 200 203 228 293 331 69 327 344 70 67 203 191 191 177 185 161 252 296 183 147 142 188 153 187 111 37 88 202 284 305 232 252 207 212 178 198 196
318 321 275 58 148 102 96 221 217 217 258 47 207 224 228 47 31 32 297 228 207 181 176 214 261 225 246 140 218 164 169 100 1 143 219 261 265 232 255 246 212 204 201 203 202
16 337 311 143 124 52 187 227 226 245 231 214 209 228 97 341 186 210 233 277 200 209 177 157 133 267 143 208 209 124 154 61 120 133 168 200 258 215 218 220 213 213 210 198 194
8 329 351 3 40 145 202 198 239 243 187 236 155 212 196 201 233 223 215 217 183 126 160 210 193 219 218 230 203 192 181 162 182 229 211 176 255 222 215 207 224 225 215 185 184
316 277 304 116 224 253 297 296 284 272 259 233 240 198 187 206 240 200 215 233 236 164 210 183 222 222 288 299 224 188 170 126 117 92 189 179 257 288 251 246 228 218 179 175 181
313 325 310 35 237 28 351 270 263 275 258 218 222 259 252 253 232 253 245 272 210 220 287 189 175 194 222 228 176 193 175 177 152 144 173 211 235 253 236 226 224 224 188 181 188
236 253 240 306 322 346 255 293 281 268 282 261 279 217 210 221 224 225 244 264 257 54 341 130 196 197 224 191 178 204 179 171 177 186 163 232 199 229 212 208 208 206 186 157 177
300 326 344 293 293 310 197 273 304 322 266 258 209 260 274 225 207 231 209 202 191 356 30 342 262 195 229 208 193 224 212 178 195 132 247 250 227 221 222 110 146 190 181 193 196
304 296 271 286 307 315 243 333 309 324 264 244 280 334 284 251 313 264 224 264 213 119 245 287 186 106 241 178 174 235 232 207 190 181 171 184 222 168 187 202 211 183 192 203 210